"Pseudo-MPEC" for C9ADFJ2

Created 2023 Jun 9 12:22:04 UT using Find_Orb

Click here for an explanation of pseudo-MPECs

 
 Astrometry: 
     C9ADFJ2*1C2023 06 07.25762414 39 00.659+10 41 23.96   ~676q 20.87GVNEOCPG96
     C9ADFJ2 1C2023 06 07.26274814 39 05.188+10 41 07.22   ~676q 20.45GVNEOCPG96
     C9ADFJ2 1C2023 06 07.26787514 39 09.716+10 40 50.27   ~676q 19.76GVNEOCPG96
     C9ADFJ2 1C2023 06 07.27299814 39 14.202+10 40 34.25   ~676q 20.10GVNEOCPG96
     C9ADFJ2 KC2023 06 07.30348 14 39 41.16 +10 38 56.9    ~677q 20.1 RoNEOCP291
     C9ADFJ2 KC2023 06 07.30554 14 39 42.95 +10 38 50.0    ~677q 20.7 RoNEOCP291
     C9ADFJ2 KC2023 06 07.30762 14 39 44.81 +10 38 43.6    ~677q 20.3 RoNEOCP291
     C9ADFJ2 KC2023 06 07.39024314 40 57.950+10 34 12.43   ~679q 20.47GVNEOCPI52
     C9ADFJ2 KC2023 06 07.39149814 40 59.153+10 34 08.51   ~679q 21.12GVNEOCPI52
     C9ADFJ2 KC2023 06 07.39274014 41 00.208+10 34 04.44   ~679q 20.24GVNEOCPI52
     C9ADFJ2 KC2023 06 07.39398114 41 01.324+10 33 59.80   ~679q 20.90GVNEOCPI52
     C9ADFJ2 KC2023 06 07.95084014 49 21.336+10 04 31.30   ~6807 20.3 GVNEOCPJ95
     C9ADFJ2 KC2023 06 07.96912814 49 36.449+10 03 34.31   ~6807 20.4 GVNEOCPJ95
     C9ADFJ2 KC2023 06 07.98493514 49 49.534+10 02 44.88   ~6807 20.5 GVNEOCPJ95
     C9ADFJ2 KC2023 06 08k)TIS\ZhyuI_[=2hbDJ#Lc1w?W=`agQDATwWi?WdCpy`(Bl%arhrH21
     C9ADFJ2 KC2023 06 08I-)fnkSy5O.g`w`=a)4:jp\FQ)L8!:0%nkJ_y#N(eohbV`#_N)DPH21
     C9ADFJ2 KC2023 06 08u]g_pRdLF/P_b.3js]Y69s9xGW\E22Aohb.8:L?`\IED13i+pAcuH21
     C9ADFJ2 KC2023 06 08.15200914 52 17.285+09 54 45.25   ~6847 20.87GVNEOCPI52
     C9ADFJ2 KC2023 06 08.15328414 52 18.311+09 54 41.80   ~6847 20.69GVNEOCPI52
     C9ADFJ2 KC2023 06 08.15456014 52 19.326+09 54 38.34   ~6847 20.62GVNEOCPI52
     C9ADFJ2 KC2023 06 08.15583714 52 20.341+09 54 34.49   ~6847 20.43GVNEOCPI52
     C9ADFJ2  C2023 06 08.27634114 53 55.590+09 48 21.42   ~687M 20.2 GVNEOCPH01
     C9ADFJ2  C2023 06 08.28156314 53 59.731+09 48 05.23   ~687M 20.7 GVNEOCPH01
     C9ADFJ2  C2023 06 08.29146114 54 07.569+09 47 34.47   ~687M 20.7 GVNEOCPH01
     C9ADFJ2  C2023 06 08.29834314 54 13.033+09 47 12.94   ~687M 20.3 GVNEOCPH01
     C9ADFJ2 pC2023 06 08Z;Blwg$cbM+K\De.=Df%CxAstrometryl2]4X%clA+^rL\5Dg:eYL01
     C9ADFJ2 pC2023 06 08h(_gI?0!1v^Ndp-MbN2!!^=]M;$gAD!d`+OYoPkkhs/^6G/HH0`?L01
     C9ADFJ2 pC2023 06 08mh[K/Vo0tvK%%*t0u?xnN]Od^^f`n'Y;o:@$K65Ef`%kjS!@sTh!L01
     C9ADFJ2 KC2023 06 08k=f)U,iI3H(=_-hOvg;\l`Fspit;``DpG3?Z58c,wJtFA\.[b.QcL01
     C9ADFJ2 KC2023 06 08'G,F`cM6x=redacted;N;I%ex+e:G;c1ml:2clickn13eq)NE?bGL01
     C9ADFJ2 KC2023 06 08Ae,ceq#kra\7Tb)HORYb=QEEPeLlfGWGTA2%DXRhereJ?4;Mvyu%L01
     C9ADFJ2 KC2023 06 08+UA`gG6RM(ru9s)Z`bYr:)7Ny%R9^]H_.m`xy4ZKctEF.+.g#IKnL01
     C9ADFJ2 KC2023 06 09QJ20%o_Nux\B^5Arol5i7[Rvj?ymjGxnY/p9X/g--#Ol8pbTQ.i]H21
     C9ADFJ2 KC2023 06 09*Y#^m+%b?h2XFBy-)\Oo,nWHb0kF;%IS_pfor^dXWREiRAh_JEATH21
     C9ADFJ2 KC2023 06 09:'K*$3:IY/(\bhS!ReX_07QjexplanationwVir0)T2T^jBR9!bvH21
     C9ADFJ2 KC2023 06 09.35991 15 08 06.91 +08 54 32.4    ~699M 20.6 RoNEOCP291
     C9ADFJ2 KC2023 06 09.36376815 08 09.442+08 54 16.24   ~699b 20.5 GVNEOCPH01
     C9ADFJ2 KC2023 06 09.36726 15 08 12.17 +08 54 10.6    ~699M 20.7 RoNEOCP291
     C9ADFJ2 KC2023 06 09.37030815 08 14.150+08 53 56.72   ~699b 20.8 GVNEOCPH01
     C9ADFJ2 KC2023 06 09.37739615 08 19.247+08 53 35.56   ~699b 20.6 GVNEOCPH01

Station data:
(291) LPL/Spacewatch II  (N31.961669 W111.599905)  US/Arizona.  Observers J.
   V. Scotti, R. S. McMillan. 1.8-m f/2.7 reflector + CCD.
(G96) Mt. Lemmon Survey  (N32.442751 W110.788720)  US/Arizona.  Observer E.
   J. Christensen. 1.5-m reflector + 10K CCD.
(H01) Magdalena Ridge Observatory, Socorro  (N33.984833 W107.189333)  US/New
   Mexico.  Observers W. H. Ryan, E. V. Ryan. Measurer W. H. Ryan. 2.4-m
   f/8.9 reflector + CCD.
(H21) Astronomical Research Observatory, Westfield  (N39.483054 W87.968270)
   US/Illinois.  Observer R. Holmes. Measurers S. Foglia, L. Buzzi, T.
   Linder, R. Holmes. 0.76-m f/3.0 astrograph + CCD0.81-m f/4.0 astrograph +
   CCD0.61-m f/4.5 astrograph + CCD0.40-m f/5.32 astrograph + CCD.
(I52) Steward Observatory, Mt. Lemmon Station  (N32.442544 W110.788920)
   US/Arizona.  Observers T. A. Pruyne, B. M. Africano, E. J. Christensen, G.
   A. Farneth, D. C. Fuls, A. R. Gibbs, A. D. Grauer, H. Gröller, J. A.
   Johnson, R. A. Kowalski, S. M. Larson, G. J. Leonard, D. Rankin, R. L.
   Seaman, F. C. Shelly, K. W. Wierzchoś. 1.0-m prime focus + CCD.
(J95) Great Shefford  (N51.474969 W1.447003)  UK/England.  Observer P.
   Birtwhistle. 0.41-m f/6.3 Schmidt-Cassegrain + CCD.
(L01) Višnjan Observatory, Tičan  (N45.290897 E13.749300)  Croatia.
   Observers K. Korlević, D. Pujagic, V. Dobos. Measurers D. Pujagic, K.
   Korlević. 1.0-m f/2.9 reflector + CCD.

Orbital elements:  C9ADFJ2
   Perihelion 2023 Apr 23.97002 +/- 0.021 TT = 23:16:50 (JD 2460058.47002)
Epoch 2023 Jun  9.0 TT = JDT 2460104.5   Earth MOID: 0.0050      AutoNEOCP
M  24.01978497 +/- 0.06             (J2000 ecliptic)
n   0.52182917 +/- 0.00118          Peri.  324.29772 +/- 0.014
a   1.52797815 +/- 0.00231          Node   238.24920 +/- 0.006
e   0.3782374 +/- 0.00101           Incl.    5.46060 +/- 0.011
P   1.89/689.87d           H 24.85  G  0.15   U  8.2
q 0.95003954 +/- 0.000115    Q 2.10591677 +/- 0.00473
From 40 observations 2023 June 7-9; mean residual 0".32
Residuals in arcseconds: 
230607 G96  .41-  .38+    230608 H21  .66+  .03-    230608 L01  .03+  .32+    
230607 G96  .10-  .12+    230608 H21  .49+  .04-    230608 L01  .13-  .01+    
230607 G96  .15+  .33-    230608 H21  .39+  .20+    230608 L01  .43-  .24-    
230607 G96  .17-  .15+    230608 I52  .25+  .82-    230608 L01  .48-  .29+    
230607 291  .46+  .13+    230608 I52  .32+  .41-    230609 H21  .86-  .30+    
230607 291  .09+  .09-    230608 I52  .22+  .01-    230609 H21  .74-  .52+    
230607 291  .49+  .26+    230608 I52  .10+  .01+    230609 H21  .11-  .19-    
230607 I52  .66-  .09-    230608 H01  .35+  .24-    230609 291  .34+  .14-    
230607 I52  .54+  .10+    230608 H01  .39+  .21-    230609 H01  .08+  .08-    
230607 I52  .27-  .10+    230608 H01  .26+  .20-    230609 291  .41+  .08-    
230607 I52  .17-  .47-    230608 H01  .32+  .31-    230609 H01  .19+  .13-    
230607 J95  .28+  .07-    230608 L01  .34+  .40+    230609 H01  .12+  .19-    
230607 J95  .27-  .04+    230608 L01  .22+  .28+    
230607 J95  .37-  .06+    230608 L01  .00   .24+    

Ephemerides (geocentric):
Date (UTC) HH   RA             Dec           delta  r     elong  mag " sig PA
---- --------  ------------   ------------  ------ ------ -----  --- --------
2023 06 09 12  15 09 55.507   +08 48 40.57  .07244 1.0692 137.1 20.9 .208  52
2023 06 09 13  15 10 25.965   +08 46 40.76  .07260 1.0694 137.1 20.9 .213  54
2023 06 09 14  15 10 56.290   +08 44 41.22  .07276 1.0696 137.2 20.9 .219  56
2023 06 09 15  15 11 26.483   +08 42 41.95  .07292 1.0698 137.3 20.9 .225  58
2023 06 09 16  15 11 56.542   +08 40 42.96  .07308 1.0700 137.4 20.9 .232  60
2023 06 09 17  15 12 26.470   +08 38 44.24  .07325 1.0702 137.4 20.9 .240  62
2023 06 09 18  15 12 56.267   +08 36 45.80  .07341 1.0704 137.5 21.0 .247  64
2023 06 09 19  15 13 25.933   +08 34 47.64  .07357 1.0706 137.6 21.0 .255  65
2023 06 09 20  15 13 55.470   +08 32 49.75  .07373 1.0708 137.7 21.0 .264  67
2023 06 09 21  15 14 24.876   +08 30 52.14  .07389 1.0710 137.7 21.0 .273  69
2023 06 09 22  15 14 54.155   +08 28 54.81  .07406 1.0711 137.8 21.0 .282  70
2023 06 09 23  15 15 23.304   +08 26 57.75  .07422 1.0713 137.9 21.0 .292  72
2023 06 10 00  15 15 52.327   +08 25 00.98  .07439 1.0715 138.0 21.0 .302  73
2023 06 10 01  15 16 21.222   +08 23 04.48  .07455 1.0717 138.0 21.0 .312  75
2023 06 10 02  15 16 49.991   +08 21 08.26  .07471 1.0719 138.1 21.0 .323  76
2023 06 10 03  15 17 18.634   +08 19 12.33  .07488 1.0721 138.2 21.0 .334  77
2023 06 10 04  15 17 47.152   +08 17 16.67  .07504 1.0723 138.2 21.0 .345  78
2023 06 10 05  15 18 15.545   +08 15 21.30  .07521 1.0725 138.3 21.0 .357  79
2023 06 10 06  15 18 43.814   +08 13 26.20  .07538 1.0727 138.4 21.0 .369  80
2023 06 10 07  15 19 11.960   +08 11 31.39  .07554 1.0729 138.5 21.0 .381  81
2023 06 10 08  15 19 39.983   +08 09 36.85  .07571 1.0731 138.5 21.0 .394  82
2023 06 10 09  15 20 07.884   +08 07 42.60  .07588 1.0733 138.6 21.0 .407  83
2023 06 10 10  15 20 35.663   +08 05 48.63  .07604 1.0735 138.7 21.0 .420  84
2023 06 10 11  15 21 03.320   +08 03 54.94  .07621 1.0736 138.7 21.0 .433  85
2023 06 10 12  15 21 30.858   +08 02 01.54  .07638 1.0738 138.8 21.0 .447  86
2023 06 10 13  15 21 58.275   +08 00 08.41  .07655 1.0740 138.9 21.0 .461  86
2023 06 10 14  15 22 25.573   +07 58 15.57  .07672 1.0742 138.9 21.0 .475  87
2023 06 10 15  15 22 52.753   +07 56 23.01  .07689 1.0744 139.0 21.0 .489  88
2023 06 10 16  15 23 19.814   +07 54 30.73  .07706 1.0746 139.1 21.0 .504  88
2023 06 10 17  15 23 46.758   +07 52 38.73  .07723 1.0748 139.1 21.0 .519  89
2023 06 10 18  15 24 13.584   +07 50 47.02  .07740 1.0750 139.2 21.0 .534  90
2023 06 10 19  15 24 40.294   +07 48 55.58  .07757 1.0752 139.3 21.0 .549  90
2023 06 10 20  15 25 06.888   +07 47 04.43  .07774 1.0754 139.3 21.0 .565  91
2023 06 10 21  15 25 33.367   +07 45 13.56  .07791 1.0756 139.4 21.0 .580  91
2023 06 10 22  15 25 59.732   +07 43 22.98  .07808 1.0758 139.5 21.0 .596  92
2023 06 10 23  15 26 25.982   +07 41 32.67  .07825 1.0760 139.5 21.0 .612  92
2023 06 11 00  15 26 52.118   +07 39 42.65  .07843 1.0762 139.6 21.0 .629  93
2023 06 11 01  15 27 18.141   +07 37 52.90  .07860 1.0764 139.6 21.1 .645  93
2023 06 11 02  15 27 44.052   +07 36 03.44  .07877 1.0766 139.7 21.1 .662  94
2023 06 11 03  15 28 09.851   +07 34 14.26  .07895 1.0767 139.8 21.1 .678  94
2023 06 11 04  15 28 35.539   +07 32 25.36  .07912 1.0769 139.8 21.1 .695  94
2023 06 11 05  15 29 01.116   +07 30 36.73  .07929 1.0771 139.9 21.1 .713  95
2023 06 11 06  15 29 26.582   +07 28 48.39  .07947 1.0773 140.0 21.1 .730  95
2023 06 11 07  15 29 51.939   +07 27 00.33  .07964 1.0775 140.0 21.1 .747  95
2023 06 11 08  15 30 17.187   +07 25 12.55  .07982 1.0777 140.1 21.1 .765  96
2023 06 11 09  15 30 42.326   +07 23 25.05  .07999 1.0779 140.1 21.1 .783  96
2023 06 11 10  15 31 07.357   +07 21 37.82  .08017 1.0781 140.2 21.1 .801  96
2023 06 11 11  15 31 32.281   +07 19 50.88  .08034 1.0783 140.2 21.1 .819  97